Regional Weather Roundup
Issued by NWS

Home | Current Version | Previous Version | Graphics & Text | Print | Product List | Glossary On
Versions: 1 2 3 4 5 6 7 8 9 10 11 12 13 14 15 16 17 18 19 20 21 22 23 24 25 26 27 28 29 30 31 32 33 34 35 36 37 38 39 40 41 42 43 44 45 46 47 48 49 50
433
ASUS43 KBIS 060202
RWRND

NORTH DAKOTA REGIONAL WEATHER ROUNDUP
NATIONAL WEATHER SERVICE BISMARCK ND
800 PM CST FRI FEB 05 2016

NOTE: "FAIR" INDICATES FEW OR NO CLOUDS BELOW 12,000 FEET WITH NO
SIGNIFICANT WEATHER AND/OR OBSTRUCTIONS TO VISIBILITY.


NDZ001>003-009>011-017-060300-
NORTHWEST NORTH DAKOTA

CITY           SKY/WX    TMP DP  RH WIND       PRES   REMARKS
WILLISTON      CLOUDY    33  25  72 CALM      30.00F
MINOT          CLOUDY    34  21  59 SW6       30.00F
MINOT AFB      CLOUDY    27  23  84 CALM      30.00F
$$

NDZ018>021-031>035-040>046-060300-
SOUTHWEST NORTH DAKOTA

CITY           SKY/WX    TMP DP  RH WIND       PRES   REMARKS
BISMARCK       CLEAR     28  21  75 SE3       30.09F
DICKINSON      CLOUDY    31  22  69 SW12      30.02F
GARRISON         N/A     26  20  77 S5        30.03F
HETTINGER ARPT CLOUDY    26  19  74 W7        30.10F WCI  18
$$

NDZ004>008-012>016-024-026-027-054-060300-
NORTHEAST NORTH DAKOTA

CITY           SKY/WX    TMP DP  RH WIND       PRES   REMARKS
GRAND FORKS    CLOUDY    18  14  84 SW6       30.11F WCI  10
GRND FRKS AFB  CLOUDY    19  15  85 S5        30.10F WCI  12
DEVILS LAKE    CLOUDY    18  15  88 CALM      30.05F
$$

NDZ022-023-025-028>030-036>039-047>053-060300-
SOUTHEAST NORTH DAKOTA

CITY           SKY/WX    TMP DP  RH WIND       PRES   REMARKS
FARGO          CLOUDY    22  18  85 SW3       30.13F
JAMESTOWN      CLOUDY    23  17  78 SW5       30.08F WCI  17
$$





USA.gov is the U.S. government's official web portal to all federal, state and local government web resources and services.